Bangor, ME

12:39 PM EDT on April 29, 2017 (GMT -0400)
Bangor International

Weather History for KBGR - November, 2010

Change the Weather History Date:

Friday, November 26, 2010

  Actual Average Record
Temperature  
Mean Temperature 27 °F 33 °F  
Max Temperature 34 °F 41 °F 60 °F (1953)
Min Temperature 20 °F 25 °F -1 °F (1939)
Degree Days  
Heating Degree Days 38 32  
Month to date heating degree days 668 710  
Since 1 July heating degree days 1336 1536  
Cooling Degree Days 0 0  
Month to date cooling degree days 0 0  
Year to date cooling degree days 537 318  
Moisture  
Dew Point 26 °F    
Average Humidity 84    
Maximum Humidity 92    
Minimum Humidity 75    
Precipitation  
Precipitation 0.20 in 0.14 in 1.40 in (1958)
Month to date precipitation 4.75 3.63  
Year to date precipitation 39.04 37.88  
Snow  
Snow 2.00 in 0.20 in 11.80 in (1987)
Month to date snowfall 2.0 1.6  
Since 1 July snowfall 2.0 1.7  
Since 1 September snowfall 2.0 1.7  
Snow Depth 0.00 in    
Sea Level Pressure  
Sea Level Pressure 29.58 in    
Wind  
Wind Speed 2 mph (NNW)    
Max Wind Speed 12 mph    
Max Gust Speed 15 mph    
Visibility 6 miles    
Events Fog , Rain , Snow    
T = Trace of Precipitation, MM = Missing Value Source: NWS Daily Summary

Daily Weather History Graph

Daily Weather History Graph

Search for Another Location

Airport or City:

Trip Planner

Search our weather history database for the weather conditions in past years. The results will help you decide how hot, cold, wet, or windy it might be!

Date:

Astronomy

Nov. 26, 2010 Rise Set
Actual Time 6:46 AM EST 3:58 PM EST
Civil Twilight 6:14 AM EST 4:30 PM EST
Nautical Twilight 5:37 AM EST 5:07 PM EST
Astronomical Twilight 5:02 AM EST 5:42 PM EST
Moon 9:07 PM EST (11/26) 10:48 AM EST (11/26)
Length of Visible Light 10h 16m
Length of Day
9h 11m
Waning Gibbous, 73% of the Moon is Illuminated
Nov 26
Waning Gibbous
Nov 28
Last Quarter
Dec 5
New
Dec 13
First Quarter
Dec 21
Full

Hourly Weather History & Observations

Time (EST) Temp. Windchill Dew Point Humidity Pressure Visibility Wind Dir Wind Speed Gust Speed Precip Events Conditions
12:53 AM 21.9 °F - 17.1 °F 82% 29.93 in 10.0 mi Calm Calm - N/A   Mostly Cloudy
1:53 AM 21.9 °F - 17.1 °F 82% 29.90 in 10.0 mi Calm Calm - N/A   Overcast
2:53 AM 23.0 °F - 19.0 °F 85% 29.90 in 10.0 mi Calm Calm - N/A   Overcast
3:53 AM 24.1 °F - 19.9 °F 84% 29.83 in 10.0 mi Calm Calm - N/A   Overcast
4:53 AM 25.0 °F - 19.0 °F 78% 29.82 in 10.0 mi Calm Calm - N/A   Overcast
5:53 AM 26.1 °F - 19.9 °F 78% 29.78 in 10.0 mi Calm Calm - N/A   Overcast
6:48 AM 26.6 °F 21.2 °F 21.2 °F 80% 29.69 in 1.0 mi ESE 4.6 mph - 0.00 in Snow Light Snow
6:53 AM 26.1 °F - 23.0 °F 88% 29.70 in 1.0 mi Calm Calm - 0.00 in Snow Light Snow
7:00 AM 26.6 °F 22.6 °F 23.0 °F 86% 29.68 in 1.0 mi ESE 3.5 mph - 0.00 in Snow Light Snow
7:14 AM 26.6 °F 22.6 °F 23.0 °F 86% 29.67 in 1.0 mi East 3.5 mph - 0.03 in Snow Light Snow
7:53 AM 27.0 °F - 25.0 °F 92% 29.65 in 0.5 mi Calm Calm - 0.05 in Fog , Snow Light Snow
8:53 AM 30.0 °F 26.5 °F 27.0 °F 88% 29.60 in 1.2 mi East 3.5 mph - 0.04 in Snow Light Snow
9:53 AM 30.9 °F - 28.9 °F 92% 29.53 in 1.5 mi Calm Calm - 0.02 in Snow Light Snow
9:56 AM 30.2 °F - 28.4 °F 93% 29.52 in 4.0 mi Calm Calm - 0.00 in Snow Light Snow
10:03 AM 30.2 °F 26.7 °F 28.4 °F 93% 29.51 in 8.0 mi East 3.5 mph - 0.00 in Snow Light Snow
10:53 AM 34.0 °F - 32.0 °F 92% 29.47 in 4.0 mi Calm Calm - 0.00 in   Overcast
11:09 AM 32.0 °F 28.7 °F 30.2 °F 93% 29.47 in 2.0 mi NNW 3.5 mph - 0.00 in Snow Light Snow
11:29 AM 32.0 °F 26.4 °F 30.2 °F 93% 29.49 in 1.0 mi NW 5.8 mph - 0.01 in Rain Light Rain
11:53 AM 32.0 °F 25.6 °F 30.9 °F 96% 29.49 in 1.2 mi NNW 6.9 mph - 0.04 in Rain Light Rain
12:45 PM 32.0 °F 27.5 °F 30.2 °F 93% 29.44 in 10.0 mi North 4.6 mph - 0.02 in   Overcast
12:53 PM 32.0 °F 27.5 °F 30.0 °F 92% 29.44 in 10.0 mi North 4.6 mph - 0.02 in   Overcast
1:10 PM 32.0 °F 27.5 °F 30.2 °F 93% 29.40 in 6.0 mi NNE 4.6 mph - 0.01 in Rain Light Freezing Rain
1:53 PM 32.0 °F 24.8 °F 30.0 °F 92% 29.41 in 4.0 mi North 8.1 mph - 0.02 in Rain Light Freezing Rain
2:18 PM 32.0 °F 27.5 °F 30.2 °F 93% 29.42 in 8.0 mi NW 4.6 mph - 0.00 in Rain Light Rain
2:43 PM 33.8 °F 30.8 °F 30.2 °F 87% 29.41 in 8.0 mi WNW 3.5 mph - 0.01 in   Mostly Cloudy
2:53 PM 33.1 °F 30.0 °F 30.9 °F 92% 29.42 in 10.0 mi NNW 3.5 mph - 0.01 in   Overcast
3:53 PM 32.0 °F 27.5 °F 30.9 °F 96% 29.43 in 8.0 mi NW 4.6 mph - N/A   Overcast
4:53 PM 32.0 °F 26.4 °F 30.0 °F 92% 29.46 in 8.0 mi WNW 5.8 mph - N/A   Overcast
5:48 PM 30.2 °F 26.7 °F 28.4 °F 93% 29.47 in 8.0 mi West 3.5 mph - N/A   Scattered Clouds
5:53 PM 30.0 °F 25.2 °F 28.0 °F 92% 29.48 in 8.0 mi West 4.6 mph - N/A   Scattered Clouds
6:53 PM 30.0 °F 24.1 °F 27.0 °F 88% 29.51 in 10.0 mi WSW 5.8 mph - N/A   Partly Cloudy
7:53 PM 30.9 °F 22.8 °F 25.0 °F 79% 29.54 in 10.0 mi WNW 9.2 mph - N/A   Partly Cloudy
8:53 PM 28.9 °F 23.9 °F 21.9 °F 75% 29.55 in 10.0 mi WNW 4.6 mph - N/A   Clear
9:53 PM 24.1 °F - 21.9 °F 91% 29.57 in 10.0 mi Calm Calm - N/A   Clear
10:53 PM 21.0 °F 14.6 °F 19.0 °F 92% 29.57 in 10.0 mi ESE 4.6 mph - N/A   Clear
11:53 PM 21.9 °F - 19.9 °F 92% 29.57 in 10.0 mi Calm Calm - N/A   Scattered Clouds